Jefferson, NC

9:46 PM EDT on March 22, 2017 (GMT -0400)
Ashe County

Weather History for KGEV - December, 2012

Change the Weather History Date:

Monday, December 17, 2012

  Actual Average Record
Temperature  
Mean Temperature 46 °F -  
Max Temperature 49 °F 43 °F 69 °F (2006)
Min Temperature 42 °F 23 °F 2 °F (1989)
Degree Days  
Heating Degree Days 20    
Moisture  
Dew Point 43 °F    
Average Humidity 89    
Maximum Humidity 95    
Minimum Humidity 68    
Precipitation  
Precipitation 0.01 in - - ()
Sea Level Pressure  
Sea Level Pressure 29.76 in    
Wind  
Wind Speed 2 mph (SSW)    
Max Wind Speed 13 mph    
Max Gust Speed 26 mph    
Visibility 7 miles    
Events Fog , Rain    
Averages and records for this station are not official NWS values.
T = Trace of Precipitation, MM = Missing Value Source: NWS Daily Summary

Daily Weather History Graph

Daily Weather History Graph

Search for Another Location

Airport or City:

Trip Planner

Search our weather history database for the weather conditions in past years. The results will help you decide how hot, cold, wet, or windy it might be!

Date:

Astronomy

Dec. 17, 2012 Rise Set
Actual Time 7:31 AM EST 5:12 PM EST
Civil Twilight 7:02 AM EST 5:41 PM EST
Nautical Twilight 6:30 AM EST 6:13 PM EST
Astronomical Twilight 5:59 AM EST 6:45 PM EST
Moon 10:46 AM EST (12/17) 10:24 PM EST (12/17)
Length of Visible Light 10h 38m
Length of Day
9h 40m
Waxing Crescent, 24% of the Moon is Illuminated
Dec 17
Waxing Crescent
Dec 20
First Quarter
Dec 28
Full
Jan 4
Last Quarter
Jan 11
New

Hourly Weather History & Observations

Time (EST) Temp. Windchill Dew Point Humidity Pressure Visibility Wind Dir Wind Speed Gust Speed Precip Events Conditions
12:15 AM 46.6 °F - 44.8 °F 93% 29.87 in 7.0 mi SSW 3.5 mph - N/A Rain Light Rain
12:35 AM 46.4 °F 45.2 °F 44.6 °F 93% 29.86 in 10.0 mi SSW 3.5 mph - N/A   Overcast
12:55 AM 46.4 °F 45.2 °F 44.1 °F 92% 29.83 in 10.0 mi SSE 3.5 mph - N/A   Overcast
1:15 AM 46.4 °F 44.3 °F 44.2 °F 92% 29.84 in 10.0 mi SSW 4.6 mph - N/A   Overcast
1:35 AM 46.4 °F 44.3 °F 43.7 °F 90% 29.82 in 7.0 mi South 4.6 mph - N/A   Overcast
1:55 AM 46.0 °F - 43.7 °F 92% 29.82 in 10.0 mi Calm Calm - N/A   Overcast
2:15 AM 46.8 °F - 43.9 °F 90% 29.82 in 10.0 mi Calm Calm - N/A   Overcast
2:35 AM 46.6 °F - 43.3 °F 88% 29.82 in 10.0 mi West 3.5 mph - N/A   Scattered Clouds
2:55 AM 45.9 °F - 43.3 °F 91% 29.81 in 10.0 mi Calm Calm - N/A   Scattered Clouds
3:15 AM 46.4 °F 45.2 °F 43.3 °F 89% 29.81 in 10.0 mi NW 3.5 mph - N/A   Clear
3:35 AM 45.5 °F - 42.8 °F 90% 29.82 in 10.0 mi Calm Calm - N/A   Clear
3:55 AM 45.7 °F - 43.5 °F 92% 29.81 in 10.0 mi Calm Calm - N/A   Clear
4:15 AM 45.3 °F - 43.2 °F 92% 29.81 in 10.0 mi Calm Calm - N/A   Clear
4:35 AM 43.9 °F - 42.1 °F 93% 29.81 in 0.2 mi Calm Calm - N/A Fog Fog
4:55 AM 44.6 °F - 42.8 °F 93% 29.81 in 1.0 mi Calm Calm - N/A   Overcast
5:15 AM 44.6 °F - 42.8 °F 93% 29.80 in 2.5 mi Calm Calm - N/A   Scattered Clouds
5:35 AM 44.8 °F - 43.2 °F 94% 29.82 in 10.0 mi Calm Calm - N/A   Clear
5:55 AM 43.7 °F - 42.3 °F 95% 29.81 in 0.2 mi Calm Calm - N/A Fog Fog
6:15 AM 44.4 °F - 42.8 °F 94% 29.82 in 4.0 mi Calm Calm - N/A   Scattered Clouds
6:35 AM 44.6 °F - 42.8 °F 93% 29.82 in 10.0 mi Calm Calm - N/A   Clear
6:55 AM 44.8 °F - 43.2 °F 94% 29.82 in 10.0 mi Calm Calm - N/A   Clear
7:15 AM 44.8 °F 43.3 °F 43.3 °F 95% 29.82 in 10.0 mi WNW 3.5 mph - N/A   Clear
7:35 AM 43.9 °F - 42.1 °F 93% 29.84 in 10.0 mi Calm Calm - N/A   Clear
7:55 AM 43.3 °F 41.7 °F 40.6 °F 90% 29.85 in 0.8 mi South 3.5 mph - N/A   Mostly Cloudy
8:15 AM 44.1 °F - 42.3 °F 93% 29.84 in 10.0 mi Calm Calm - N/A   Scattered Clouds
8:35 AM 43.9 °F - 42.1 °F 93% 29.84 in 10.0 mi Calm Calm - N/A   Clear
8:55 AM 42.8 °F - 41.0 °F 93% 29.82 in 0.2 mi Calm Calm - N/A Fog Fog
9:15 AM 43.7 °F - 42.1 °F 94% 29.83 in 0.5 mi Calm Calm - N/A Fog Fog
9:35 AM 44.6 °F - 43.0 °F 94% 29.83 in 7.0 mi Calm Calm - N/A   Scattered Clouds
9:55 AM 43.9 °F - 42.4 °F 95% 29.83 in 2.5 mi Calm Calm - N/A   Scattered Clouds
10:15 AM 45.9 °F - 44.1 °F 93% 29.83 in 10.0 mi Calm Calm - N/A   Scattered Clouds
10:35 AM 47.1 °F - 43.9 °F 88% 29.81 in 3.0 mi ESE 3.5 mph - N/A   Scattered Clouds
10:55 AM 46.8 °F - 44.8 °F 93% 29.81 in 7.0 mi Calm Calm - N/A   Mostly Cloudy
11:15 AM 46.8 °F - 44.6 °F 92% 29.81 in 10.0 mi Calm Calm - N/A   Overcast
11:35 AM 47.7 °F - 44.1 °F 87% 29.80 in 10.0 mi SSE 3.5 mph - N/A   Overcast
11:55 AM 47.7 °F - 44.8 °F 90% 29.79 in 1.5 mi Calm Calm - N/A   Overcast
12:15 PM 48.4 °F - 45.9 °F 91% 29.77 in 10.0 mi SSE 3.5 mph - N/A   Scattered Clouds
12:35 PM 48.7 °F - 45.5 °F 89% 29.76 in 10.0 mi Calm Calm - N/A   Mostly Cloudy
12:55 PM 48.6 °F - 45.7 °F 90% 29.75 in 10.0 mi Calm Calm - N/A   Overcast
1:15 PM 48.7 °F - 46.0 °F 90% 29.74 in 10.0 mi SE 5.8 mph - N/A   Overcast
1:35 PM 47.5 °F - 45.1 °F 92% 29.72 in 10.0 mi SE 5.8 mph - N/A   Overcast
1:55 PM 47.3 °F - 45.1 °F 92% 29.71 in 10.0 mi SSE 3.5 mph - N/A   Overcast
2:15 PM 47.1 °F - 45.0 °F 92% 29.70 in 7.0 mi Calm Calm - N/A   Overcast
2:35 PM 46.9 °F - 45.1 °F 93% 29.70 in 0.5 mi SSE 3.5 mph - N/A Fog Fog
2:55 PM 46.6 °F - 44.8 °F 93% 29.69 in 0.2 mi Calm Calm - N/A Fog Fog
3:15 PM 46.9 °F - 45.3 °F 94% 29.70 in 0.8 mi Calm Calm - N/A   Overcast
3:35 PM 46.8 °F - 45.1 °F 94% 29.68 in 0.2 mi South 3.5 mph - N/A Fog Fog
3:55 PM 46.8 °F - 45.1 °F 94% 29.68 in 0.2 mi SSE 3.5 mph - N/A Fog Fog
4:15 PM 46.8 °F - 45.1 °F 94% 29.69 in 0.2 mi SSE 4.6 mph - N/A Fog Fog
4:35 PM 46.6 °F - 45.0 °F 94% 29.68 in 0.2 mi Calm Calm - N/A Fog Fog
4:55 PM 46.6 °F - 45.0 °F 94% 29.66 in 0.5 mi South 3.5 mph - N/A Fog Fog
7:35 PM 46.2 °F 45.0 °F 44.8 °F 95% 29.64 in 10.0 mi SSE 3.5 mph - N/A   Scattered Clouds
7:55 PM 46.9 °F - 45.5 °F 95% 29.67 in 10.0 mi NW 5.8 mph - N/A Rain Light Rain
8:15 PM 47.5 °F - 45.0 °F 91% 29.67 in 10.0 mi NNW 4.6 mph - N/A Rain Light Rain
8:35 PM 49.1 °F - 43.7 °F 82% 29.66 in 10.0 mi Calm Calm - N/A   Overcast
8:55 PM 49.5 °F - 43.5 °F 80% 29.66 in 10.0 mi Calm Calm - N/A   Overcast
9:15 PM 47.3 °F - 43.5 °F 87% 29.65 in 10.0 mi Calm Calm - N/A   Mostly Cloudy
9:35 PM 49.3 °F - 40.6 °F 72% 29.64 in 10.0 mi WSW 6.9 mph 19.6 mph N/A   Scattered Clouds
9:55 PM 49.8 °F - 39.6 °F 68% 29.64 in 10.0 mi West 5.8 mph - N/A   Mostly Cloudy
10:15 PM 49.8 °F - 40.5 °F 70% 29.65 in 10.0 mi West 11.5 mph 17.3 mph N/A Rain Rain
10:35 PM 47.5 °F - 39.4 °F 73% 29.66 in 10.0 mi West 11.5 mph 21.9 mph 0.01 in Rain Light Rain
10:55 PM 46.8 °F - 38.8 °F 74% 29.68 in 10.0 mi WNW 12.7 mph 26.5 mph 0.01 in   Overcast
11:15 PM 46.6 °F - 38.5 °F 73% 29.68 in 10.0 mi WNW 8.1 mph - N/A   Overcast
11:35 PM 46.4 °F 42.9 °F 38.5 °F 74% 29.68 in 10.0 mi WNW 6.9 mph 16.1 mph N/A   Overcast
11:55 PM 45.5 °F 42.5 °F 38.1 °F 75% 29.67 in 10.0 mi NW 5.8 mph - N/A   Mostly Cloudy